[[{"header":{"parameterUnit":"m.s-1","parameterCategory":1,"la1":30.2992,"la2":30.254,"lo1":-89.0895,"lo2":-89.0443,"dy":0.0025,"dx":0.0025,"nx":19,"ny":19,"refTime":"2026-03-08T03:00:00:Z","depth":0,"parameterNumber":2,"parameterNumberName":"U-component_of_WINDS"},"data":[0,0,0,0.5614,0.5616,0.5695,0.5695,0.5788,0.5789,0,0,0,0,0,0,0,0,0,0,0,0.5584,0.5585,0.5614,0.5616,0.5695,0.5695,0.5788,0.5789,0,0,0,0,0,0,0,0,0,0,0,0.5584,0.5585,0.5585,0.5616,0.5695,0.5695,0.5788,0.5732,0,0,0,0,0,0,0,0,0,0,0.5656,0.5622,0.5584,0.5585,0.5616,0.5695,0.5695,0.5729,0.5735,0.5749,0,0.5758,0,0.5775,0.5795,0.5795,0,0,0,0.5621,0.5617,0.5644,0.5585,0.5617,0.5694,0.5661,0.5733,0.5739,0.5757,0.5759,0.5763,0.5776,0.5795,0.5796,0.5853,0.5853,0,0,0.5616,0.5596,0.5639,0.5648,0.5634,0.5658,0.5663,0.5737,0.5739,0.576,0.5765,0.5778,0.5796,0.5797,0.5853,0.5853,0,0,0,0.56,0.5592,0.5618,0.5644,0.5659,0.566,0.5666,0.5736,0.5745,0.5766,0.5779,0.5796,0.5797,0.5853,0.5853,0.5834,0,0,0,0.5598,0.5583,0.5615,0.5603,0.5657,0.5698,0.5663,0.574,0.5749,0.5778,0.5796,0.5798,0.5853,0.5853,0.5834,0.5828,0,0,0,0.5581,0.5581,0.559,0.5602,0.5635,0.5697,0.5712,0.5743,0.5757,0.5795,0.5798,0.5853,0.5853,0.5835,0.5829,0.5837,0,0,0,0.5558,0.5573,0.559,0.5611,0.5634,0.5684,0.5711,0.575,0.578,0.5797,0.5853,0.5853,0.5835,0.583,0.5838,0.584,0.5839,0,0,0.5565,0.5573,0.5587,0.5605,0.5646,0.5674,0.5713,0.5761,0.5785,0.5829,0.5831,0.5834,0.5829,0.5837,0.5841,0.584,0,0,0,0.5583,0.5593,0.5608,0.5635,0.5672,0.5703,0.5747,0.5765,0.5804,0.5803,0.584,0.5838,0.5843,0.5846,0.5845,0.5851,0.5853,0.5853,0.5853,0.5564,0.5592,0.5617,0.5655,0.5681,0.5726,0.575,0.5782,0.5804,0.5812,0.5826,0.5824,0.5826,0.5826,0.5832,0.5829,0.5829,0.5829,0.5829,0.5577,0.5596,0.5623,0.5657,0.5687,0.5717,0.5761,0.5775,0.5808,0.5817,0.5823,0.583,0.5823,0.583,0.5828,0.5828,0.5828,0.5829,0.5829,0.5568,0.5581,0.5602,0.5644,0.5673,0.5711,0.5741,0.5768,0.5793,0.5799,0.5816,0.5817,0.5821,0.5805,0.5805,0.5805,0.5805,0.5805,0.5805,0.555,0.5574,0.5595,0.5634,0.5655,0.5686,0.5731,0.5752,0.5783,0.5801,0.5801,0.5821,0.5817,0.5816,0.5805,0.5805,0.5805,0.5805,0.5805,0.5553,0.5556,0.5589,0.5609,0.5658,0.5685,0.5718,0.576,0.5782,0.5796,0.5815,0.5807,0.5818,0.5819,0.5818,0.5809,0.5809,0.5809,0.5809,0.5545,0.5552,0.5591,0.5623,0.5656,0.5689,0.5726,0.5761,0.5799,0.5814,0.5819,0.582,0.582,0.5831,0.5831,0.5831,0.5825,0.5825,0.5825,0.5549,0.556,0.5586,0.5621,0.5661,0.5694,0.573,0.5765,0.5809,0.5826,0.5827,0.5826,0.5828,0.5827,0.5844,0.5845,0.5844,0,0]},{"header":{"parameterUnit":"m.s-1","parameterCategory":1,"la1":30.2992,"la2":30.254,"lo1":-89.0895,"lo2":-89.0443,"dy":0.0025,"dx":0.0025,"nx":19,"ny":19,"refTime":"2026-03-08T03:00:00:Z","depth":0,"parameterNumber":3,"parameterNumberName":"V-component_of_WINDS"},"data":[0,0,0,2.8938,2.8938,2.8971,2.8971,2.9011,2.9012,0,0,0,0,0,0,0,0,0,0,0,2.8928,2.8928,2.8937,2.8938,2.8971,2.8971,2.9011,2.9012,0,0,0,0,0,0,0,0,0,0,0,2.8927,2.8928,2.8928,2.8938,2.8971,2.8971,2.9011,2.8987,0,0,0,0,0,0,0,0,0,0,2.8955,2.8946,2.8928,2.8928,2.8939,2.8971,2.8971,2.8986,2.8988,2.8996,0,2.9004,0,2.9008,2.9014,2.9014,0,0,0,2.8938,2.8944,2.8953,2.8928,2.8939,2.8971,2.8956,2.8987,2.899,2.8999,2.9004,2.9006,2.9009,2.9015,2.9015,2.9064,2.9064,0,0,2.8936,2.8933,2.8951,2.8955,2.8951,2.8955,2.8957,2.8989,2.8993,2.9004,2.9007,2.901,2.9015,2.9015,2.9063,2.9064,0,0,0,2.8931,2.8932,2.894,2.8953,2.896,2.8956,2.8959,2.8992,2.8995,2.9007,2.901,2.9015,2.9016,2.9063,2.9063,2.9074,0,0,0,2.893,2.8929,2.8939,2.8938,2.8959,2.8976,2.8961,2.8993,2.8997,2.901,2.9015,2.9016,2.9063,2.9063,2.9073,2.908,0,0,0,2.8925,2.8928,2.8933,2.8938,2.8952,2.8976,2.8981,2.8994,2.8999,2.9014,2.9016,2.9063,2.9063,2.9073,2.9078,2.9093,0,0,0,2.8919,2.894,2.8933,2.8958,2.8952,2.8983,2.8981,2.9003,2.9018,2.9015,2.9063,2.9063,2.9072,2.9078,2.9092,2.9106,2.9111,0,0,2.8944,2.8943,2.8958,2.8953,2.8985,2.8978,2.9011,2.9026,2.9029,2.9052,2.9053,2.9074,2.9078,2.9093,2.9138,2.9142,0,0,0,2.8965,2.8976,2.8985,2.9,2.9014,2.9026,2.9037,2.9043,2.9063,2.904,2.9082,2.9085,2.9094,2.91,2.9104,2.9112,2.9066,2.9066,2.9066,2.8995,2.9001,2.9026,2.9036,2.905,2.9062,2.9074,2.9084,2.9083,2.9093,2.91,2.9127,2.9135,2.9137,2.9146,2.9106,2.9106,2.9106,2.9106,2.9033,2.905,2.9051,2.9076,2.9081,2.9101,2.9114,2.9112,2.9132,2.9122,2.9129,2.9119,2.9142,2.915,2.9107,2.9107,2.9107,2.9107,2.9107,2.9055,2.9064,2.9072,2.9096,2.9114,2.9121,2.9141,2.9144,2.9146,2.9154,2.9163,2.9163,2.9164,2.9158,2.9158,2.9158,2.9158,2.9158,2.9158,2.9075,2.9084,2.9101,2.9119,2.913,2.9145,2.9158,2.9168,2.918,2.9181,2.9181,2.918,2.9143,2.9135,2.916,2.9159,2.9159,2.9159,2.9159,2.9114,2.9106,2.9133,2.9144,2.9166,2.9184,2.9187,2.9209,2.9217,2.9227,2.9224,2.9196,2.9195,2.9192,2.9186,2.9222,2.9222,2.9222,2.9222,2.9133,2.9133,2.9163,2.9181,2.9199,2.9205,2.9235,2.9245,2.9255,2.926,2.9255,2.9246,2.9243,2.9243,2.924,2.9233,2.9282,2.9282,2.9282,2.9158,2.9161,2.9186,2.9197,2.9215,2.9229,2.9258,2.9278,2.9286,2.9284,2.9265,2.9263,2.9248,2.9242,2.9241,2.9235,2.9223,0,0]}]]